Back to catalog

THORAD DELTA 1 DEB

AliveSSO
NORAD 42623·DEBRIS·🇺🇸 United States

Launched Nov 15, 1974 from Vandenberg Space Force Base

Loading…

Next Passes (next 24 hours)

TLE

FreshSource: Space-Track

Epoch: Sep 12, 2026, 06:07 UTC

1 42623U 74089GQ  26255.25531012 -.00000037  00000-0  62955-4 0  9996
2 42623 102.2194 269.5435 0072028  19.1664 341.2087 12.43800709243084

Track THORAD DELTA 1 DEB in real time with AllMySat

Download on the App Store